This demonstration page uses our WeatherBlox Daily Observations layout. Learn more.

Left ArrowRight Arrow

40.92945, -100.16068

Hourly Observations for June 15, 2020

Temp ( °F °C ) Dew Point ( °F °C ) Humidity (%) Winds ( mph kmh ) Pressure ( in mb ) Visibility ( mi km ) Precip ( " mm )
12:15 am 00:15 Clear 79 26.1 53 11.5 40 40 S 21 33 29.81 1010 10 16.0934 0 0
12:35 am 00:35 Clear 79 25.9 53 11.4 40 40 S 20 31 29.81 1010 10 16.0934 0 0
12:55 am 00:55 Clear 78 25.5 53 11.4 41 41 S 22 35 29.83 1010 10 16.0934 0 0
1:15 am 01:15 Clear 77 25.1 53 11.4 42 42 S 24 39 29.83 1010 10 16.0934 0 0
1:35 am 01:35 Clear 77 24.8 53 11.4 43 43 S 22 35 29.84 1011 10 16.0934 0 0
1:55 am 01:55 Clear 76 24.2 53 11.5 45 45 S 18 30 29.86 1011 10 16.0934 0 0
2:15 am 02:15 Clear 75 24.1 53 11.4 45 45 S 22 35 29.85 1011 10 16.0934 0 0
2:35 am 02:35 Clear 76 24.3 52 11.1 44 44 S 21 33 29.85 1011 10 16.0934 0 0
2:55 am 02:55 Clear 76 24.3 52 11 43 43 S 23 37 29.85 1011 10 16.0934 0 0
3:15 am 03:15 Clear 75 24 52 11 44 44 S 22 35 29.85 1011 10 16.0934 0 0
3:35 am 03:35 Clear 75 23.7 52 10.9 45 45 S 23 37 29.85 1011 10 16.0934 0 0
3:55 am 03:55 Clear 74 23.3 51 10.6 45 45 S 22 35 29.85 1011 10 16.0934 0 0
4:15 am 04:15 Clear 74 23.2 50 10.1 44 44 S 18 30 29.87 1011 10 16.0934 0 0
4:35 am 04:35 Clear 74 23.4 50 9.8 42 42 S 20 31 29.86 1011 10 16.0934 0 0
4:55 am 04:55 Clear 73 22.7 50 9.9 44 44 S 15 24 29.88 1012 10 16.0934 0 0
5:15 am 05:15 Clear 73 23 49 9.6 43 43 S 17 28 29.88 1012 10 16.0934 0 0
5:35 am 05:35 Clear 73 22.5 49 9.6 44 44 S 23 37 29.88 1012 10 16.0934 0 0
5:55 am 05:55 Clear 72 22.4 50 9.8 45 45 S 22 35 29.89 1012 10 16.0934 0 0
6:15 am 06:15 Sunny 72 22.1 50 10.1 47 47 S 20 31 29.9 1013 10 16.0934 0 0
6:35 am 06:35 Sunny 71 21.8 51 10.5 49 49 S 18 30 29.92 1013 10 16.0934 0 0
6:55 am 06:55 Sunny 72 22.2 51 10.8 49 49 S 23 37 29.91 1013 10 16.0934 0 0
7:15 am 07:15 Sunny 72 22.4 52 11.3 50 50 S 21 33 29.91 1013 10 16.0934 0 0
7:35 am 07:35 Sunny 72 22.3 53 11.5 51 51 S 21 33 29.91 1013 10 16.0934 0 0
7:55 am 07:55 Sunny 72 22.2 53 11.6 51 51 S 23 37 29.91 1013 10 16.0934 0 0
12:15 pm 12:15 Sunny 85 29.6 56 13.4 37 37 S 17 28 29.86 1011 10 16.09 0 0
12:35 pm 12:35 Sunny 83 28.6 56 13.4 39 39 S 16 26 29.86 1011 10 16.09 0 0
12:55 pm 12:55 Sunny 84 28.7 54 12 36 36 S 20 32 29.86 1011 10 16.09 0 0
1:15 pm 13:15 Sunny 87 30.3 53 11.8 32 32 S 20 32 29.85 1011 10 16.09 0 0
1:35 pm 13:35 Sunny 88 31.2 54 12.3 31 31 S 24 39 29.83 1010 10 16.09 0 0
2:35 pm 14:35 Sunny 91 32.7 55 12.8 30 30 SSE 22 35 29.82 1010 10 16.09 0 0
3:15 pm 15:15 Sunny 92 33.4 54 12 27 27 S 23 37 29.8 1009 10 16.09 0 0
3:35 pm 15:35 Sunny 92 33.4 54 12.3 28 28 S 22 35 29.8 1009 10 16.09 0 0
3:55 pm 15:55 Sunny 92 33.4 54 12.3 28 28 S 24 39 29.8 1009 10 16.09 0 0
4:35 pm 16:35 Sunny 93 33.7 53 11.7 26 26 SSE 24 39 29.79 1009 10 16.09 0 0
4:55 pm 16:55 Sunny 93 33.7 52 11 25 25 S 24 39 29.79 1009 10 16.09 0 0
5:15 pm 17:15 Sunny 93 33.7 52 11.1 25 25 SSE 23 37 29.78 1008 10 16.09 0 0
5:35 pm 17:35 Sunny 92 33.2 52 11.1 26 26 S 22 35 29.79 1009 10 16.0934 0 0
5:55 pm 17:55 Sunny 91 32.8 53 11.5 27 27 SSE 18 30 29.8 1009 10 16.0934 0 0
6:15 pm 18:15 Sunny 91 32.9 54 12.1 28 28 S 20 31 29.8 1009 10 16.0934 0 0
6:35 pm 18:35 Sunny 91 32.6 54 12.2 29 29 SSE 22 35 29.8 1009 10 16.0934 0 0
6:55 pm 18:55 Sunny 89 31.8 54 12.4 30 30 SSE 24 39 29.8 1009 10 16.0934 0 0
7:15 pm 19:15 Sunny 88 31 54 12 31 31 SSE 21 33 29.81 1010 10 16.0934 0 0
7:35 pm 19:35 Sunny 87 30.3 54 12 32 32 SSE 18 30 29.82 1010 10 16.0934 0 0
7:55 pm 19:55 Sunny 85 29.2 53 11.8 34 34 SSE 17 28 29.83 1010 10 16.0934 0 0
8:15 pm 20:15 Sunny 83 28.5 52 11.2 34 34 SSE 18 30 29.84 1011 10 16.0934 0 0
8:35 pm 20:35 Sunny 82 28 52 11 35 35 SSE 17 28 29.85 1011 10 16.0934 0 0
8:55 pm 20:55 Sunny 81 27.2 51 10.4 35 35 SE 16 26 29.86 1011 10 16.0934 0 0
9:15 pm 21:15 Clear 80 26.7 50 9.9 35 35 SSE 17 28 29.87 1011 10 16.0934 0 0
9:35 pm 21:35 Clear 80 26.4 49 9.6 35 35 SE 15 24 29.87 1011 10 16.0934 0 0
9:55 pm 21:55 Clear 78 25.7 50 10 37 37 SE 14 22 29.88 1012 10 16.0934 0 0
10:15 pm 22:15 Clear 78 25.3 50 10.1 38 38 SSE 15 24 29.9 1012 10 16.0934 0 0
10:35 pm 22:35 Clear 77 25 50 10 39 39 SSE 15 24 29.9 1013 10 16.0934 0 0
10:55 pm 22:55 Clear 76 24.6 50 10 40 40 SSE 16 26 29.91 1013 10 16.0934 0 0
11:15 pm 23:15 Clear 76 24.5 50 10 40 40 SSE 16 26 29.91 1013 10 16.0934 0 0
11:35 pm 23:35 Clear 75 24.1 51 10.3 42 42 SSE 14 22 29.92 1013 10 16.0934 0 0
11:55 pm 23:55 Clear 75 23.8 51 10.6 43 43 SSE 16 26 29.92 1013 10 16.0934 0 0

Powered by AerisWeather